Location: Hains Lake
(37.8540°N, 99.8578°W)
Time: 16:30:53
(UTC+00:00)

Vanguard 1 - Pass Details

Date: 04 December 2021
Orbit: 652 x 3830 km, 34.2° (Epoch: 22 January)

Event Time Altitude Azimuth Distance (km) Brightness Sun altitude
Rises 04:41:17 0° 216° (SW) 6,523 14.3 -62.0°
Reaches altitude 10° 04:45:21 10° 211° (SSW) 5,860 14.0 -62.7°
Enters shadow 04:47:31 16° 207° (SSW) 5,543 13.8 -63.1°
Exits shadow 05:29:05 - 75° (ENE) 7,241 14.4 -69.7°
Sets 05:30:05 0° 74° (ENE) 7,402 14.4 -69.8°
